Location: Tamazert
(32.6352°N, 5.2072°W)
Time: 07:56:42
(UTC+00:00)

Tiros 1 despin weight - Pass Details

Date: 07 October 2022
Orbit: 590 x 637 km, 48.2° (Epoch: 28 November)

Event Time Altitude Azimuth Distance (km) Brightness Sun altitude
Rises 14:27:28 0° 250° (WSW) 2,813 ? 39.5°
Reaches altitude 10° 14:29:51 10° 258° (WSW) 1,918 ? 39.1°
Maximum altitude 14:33:58 39° 327° (NNW) 902 ? 38.5°
Drops below altitude 10° 14:38:10 10° 37° (NE) 1,948 ? 37.8°
Sets 14:40:37 0° 46° (NE) 2,862 ? 37.4°
